Location: Eaton
(41.3139°N, 82.0207°W)
Time: 15:23:06
(UTC+00:00)

CZ-4C R/B - Pass Details

Date: 17 June 2021
Orbit: 606 x 1396 km, 63.4° (Epoch: 02 August)

Event Time Altitude Azimuth Distance (km) Brightness Sun altitude
Exits shadow 08:19:30 - 169° (S) 2,159 4.0 -14.2°
Reaches altitude 10° 08:19:47 10° 167° (SSE) 2,068 3.9 -14.2°
Maximum altitude 08:23:37 26° 111° (ESE) 1,395 3.6 -13.7°
Drops below altitude 10° 08:28:00 10° 56° (NE) 2,383 5.9 -13.2°
Sets 08:31:01 0° 44° (NE) 3,458 7.5 -12.8°
